Flag for Canada Weather past 2 weeks in Vaughan, Ontario, Canada

Now
61 °F

Clear.


Feels Like: 61 °F
Forecast: 64 / 83 °F
Wind: No wind

Location: Toronto Buttonville

Current Time: Jul 22, 2014 at 5:24:39 AM

Latest Report: Jul 22, 2014 at 5:00 AM


Visibility: 7 mi

Pressure: 30.11 "Hg

Humidity: 100%

Dew point: 61 °F

Location of VaughanLocation

Historic Weather in Vaughan — Graph

°F

Vaughan temperature yesterday

Maximum temperature yesterday: 82 °F (at 3:00 PM)
Minimum temperature yesterday: 59 °F (at 3:00 AM)
Average temperature yesterday: 70 °F

Past Weeks' High & Low Weather Summary

 TemperatureHumidityPressure
High84 °F (Jul 7, 4:00 PM)100% (Jul 20, 4:00 AM)30.26 "Hg (Jul 20, 4:00 AM)
Low48 °F (Jul 17, 6:00 AM)33% (Jul 18, 8:00 PM)29.50 "Hg (Jul 8, 4:00 PM)
Average67 °F70%29.97 "Hg
* Reported Jul 7 4:00 AM — Jul 22 4:00 AM, Vaughan, Weather by CustomWeather, © 2014

Note: Actual official high and low records may vary slightly from our data, if they occured in-between our weather recording intervals... More about our weather records

Advertising

Vaughan weather history for previous 24 hours

 ConditionsComfort  
Time TempWeatherWind HumidityBarometerVisibility
4:00 AM
Jul 22
63 °FClear.No wind94%30.10 "Hg7 mi
3:00 AM63 °FClear.No wind100%30.11 "Hg8 mi
2:00 AM64 °FClear.No wind94%30.11 "Hg8 mi
1:00 AM64 °FClear.No wind100%30.12 "Hg10 mi
12:00 AM66 °FClear.No wind94%30.12 "Hg10 mi
11:00 PM
Jul 21
68 °FClear.No wind88%30.12 "Hg15 mi
10:00 PM70 °FPassing clouds.No wind78%30.12 "Hg15 mi
9:00 PM73 °FPassing clouds.2 mph61%30.11 "Hg15 mi
8:00 PM77 °FPassing clouds.7 mph57%30.10 "Hg15 mi
7:00 PM79 °FPassing clouds.6 mph54%30.10 "Hg15 mi
6:00 PM79 °FScattered clouds.8 mph58%30.10 "Hg15 mi
5:00 PM79 °FBroken clouds.6 mph61%30.10 "Hg15 mi
4:00 PM79 °FScattered clouds.9 mph61%30.11 "Hg15 mi
3:00 PM82 °FScattered clouds.7 mph58%30.11 "Hg15 mi
2:00 PM81 °FScattered clouds.2 mph54%30.11 "Hg15 mi
1:00 PM79 °FBroken clouds.6 mph58%30.13 "Hg12 mi
12:00 PM77 °FBroken clouds.No wind65%30.13 "Hg12 mi
11:00 AM75 °FBroken clouds.2 mph69%30.13 "Hg12 mi
10:00 AM73 °FPassing clouds.2 mph74%30.14 "Hg12 mi
9:00 AM70 °FPassing clouds.2 mph83%30.15 "Hg10 mi
8:00 AM66 °FFog.No wind88%30.14 "Hg6 mi
7:00 AM61 °FFog.No wind100%30.13 "Hg6 mi
6:00 AM59 °FFog.No wind94%30.11 "Hg4 mi
5:00 AM59 °FPassing clouds.No wind100%30.10 "Hg8 mi
Weather by CustomWeather, © 2014

See weather overviewHow to use our weather pages